Flag for Germany Weather past 2 weeks in Giessen, Hesse, Germany

Now
81 °F

Passing clouds.


Feels Like: 84 °F
Forecast: 55 / 68 °F
Wind: 2 mph from South

Location: Giessen

Current Time: Aug 31, 2015 at 1:05:08 PM

Latest Report: Aug 31, 2015 at 12:00 PM


Visibility: 16 mi

Pressure: 29.89 "Hg

Humidity: 61%

Dew point: 66 °F

Location of GiessenLocation

Historic Weather in Giessen — Graph

°F

Giessen temperature yesterday

Maximum temperature yesterday: 90 °F (at 4:00 PM)
Minimum temperature yesterday: 63 °F (at 6:00 AM)
Average temperature yesterday: 75 °F

Past Weeks' High & Low Weather Summary

 TemperatureHumidityPressure
High90 °F (Aug 30, 4:00 PM)100% (Aug 21, 8:00 AM)30.30 "Hg (Aug 21, 8:00 AM)
Low49 °F (Aug 19, 7:00 AM)28% (Aug 23, 5:00 PM)29.65 "Hg (Aug 24, 5:00 PM)
Average64 °F75%30.00 "Hg
* Reported Aug 16 12:00 Noon — Aug 31 12:00 Noon, Giessen, Weather by CustomWeather, © 2015

Note: Actual official high and low records may vary slightly from our data, if they occured in-between our weather recording intervals... More about our weather records

Advertising

Giessen weather history for previous 24 hours

 ConditionsComfort  
Time TempWeatherWind HumidityBarometerVisibility
12:00 PM
Mon, Aug 31
81 °FPassing clouds.2 mph61%29.89 "Hg16 mi
11:00 AM77 °FOvercast.2 mph70%29.91 "Hg15 mi
10:00 AM72 °FPartly sunny.1 mph76%29.92 "Hg11 mi
9:00 AM68 °FSunny.2 mph90%29.93 "Hg6 mi
8:00 AM64 °FFog.1 mph93%29.95 "Hg4 mi
7:00 AM63 °FScattered clouds.2 mph98%29.95 "Hg1 mi
5:00 AM65 °FFog.1 mph97%29.96 "Hg3 mi
4:00 AM65 °FPassing clouds.1 mph98%29.97 "Hg6 mi
3:00 AM65 °FFog.No wind98%29.97 "Hg3 mi
2:00 AM66 °FClear.2 mph95%29.99 "Hg5 mi
1:00 AM67 °FOvercast.1 mph95%29.99 "Hg7 mi
11:00 PM
Sun, Aug 30
71 °FOvercast.1 mph88%30.00 "Hg16 mi
10:00 PM73 °FOvercast.2 mph83%30.00 "Hg19 mi
9:00 PM75 °FOvercast.1 mph83%29.99 "Hg19 mi
8:00 PM83 °FOvercast.1 mph55%29.97 "Hg28 mi
7:00 PM88 °FOvercast.2 mph44%29.96 "Hg34 mi
6:00 PM87 °FOvercast.3 mph49%29.96 "Hg37 mi
5:00 PM90 °FOvercast.5 mph44%29.97 "Hg28 mi
4:00 PM90 °FSunny.6 mph41%29.98 "Hg18 mi
3:00 PM89 °FSunny.3 mph46%29.99 "Hg25 mi
2:00 PM86 °FSunny.3 mph55%30.01 "Hg19 mi
1:00 PM84 °FSunny.2 mph57%30.03 "Hg22 mi
Weather by CustomWeather, © 2015

See weather overviewHow to use our weather pages